RH
65 69 65 64 62 59 63 71 78 80 79 78 77 77 75 69 64 62 63 63 62 62 62 59 57 56 56 55 54 52 48 42 37 33 33 33 34 34 34 37 40 41 39 38 37 35 34 35 38 42 48 55 60 65 70 74 78 82 84 87 90 92 93
58 69 68 66 64 62 63 70 79 83 83 81 78 78 76 73 68 65 64 67 68 68 68 65 61 59 59 58 56 54 50 45 41 38 35 35 35 34 35 37 40 42 42 41 40 39 36 34 36 39 43 47 51 57 63 68 74 78 81 84 87 89 91
47 61 70 69 67 67 68 74 83 87 85 84 81 79 78 76 72 69 67 70 74 75 75 72 67 63 62 60 58 56 52 48 44 41 39 38 38 37 37 38 40 42 44 43 41 41 40 36 34 37 41 44 46 49 53 60 67 74 78 80 83 85 88
41 52 67 72 69 71 75 81 89 92 90 88 84 81 81 79 76 73 71 72 77 80 80 77 73 68 65 63 61 59 54 48 44 41 41 40 40 39 39 40 40 42 45 44 42 42 42 39 36 35 38 43 45 46 47 51 58 65 71 77 80 82 84
45 51 64 74 73 75 81 86 91 95 94 92 89 85 85 84 80 78 76 76 79 82 83 81 77 72 68 65 62 61 56 49 44 41 40 40 39 39 40 40 40 42 44 46 44 42 43 42 39 36 37 40 43 45 46 47 49 54 61 69 76 79 81
51 55 65 75 76 78 85 89 92 95 95 95 94 91 89 89 87 83 81 82 83 84 86 86 81 75 71 68 64 62 59 52 46 42 40 40 39 39 40 40 40 40 43 46 46 44 43 44 42 39 37 38 40 43 44 45 45 48 52 59 67 73 76
59 61 66 73 78 83 88 91 93 95 96 96 96 96 93 93 92 89 86 86 85 85 87 89 85 79 74 69 65 63 61 55 48 44 42 41 40 40 42 42 40 38 40 45 47 45 44 44 44 41 39 38 39 41 44 45 47 48 48 51 57 63 69
68 69 70 73 81 90 93 92 95 96 96 96 97 98 97 96 96 95 91 89 87 86 87 88 86 82 75 69 67 66 64 59 52 46 44 43 42 41 42 43 41 38 38 43 47 47 45 45 45 43 41 39 38 40 42 43 44 47 49 50 51 55 60
77 76 76 78 86 96 95 93 95 97 96 96 97 98 99 99 99 97 93 91 89 89 88 87 86 83 76 70 68 69 68 64 56 49 45 44 44 43 44 44 42 39 39 42 47 49 47 46 46 44 42 41 39 40 41 41 42 46 50 52 52 52 53
86 81 80 85 92 97 96 94 96 96 96 97 98 99 100 100 100 98 95 92 90 89 88 87 87 84 78 72 70 71 71 69 61 53 48 46 45 45 45 44 43 40 40 43 48 49 48 48 48 45 43 42 41 40 40 41 42 44 47 51 53 53 52
93 86 83 90 97 98 96 95 95 96 98 99 99 100 100 100 100 98 95 93 90 88 87 88 89 87 82 76 72 71 73 73 68 59 52 49 48 47 46 45 44 42 42 45 48 50 49 49 49 45 43 43 42 42 42 43 44 43 44 48 51 52 52
97 91 85 88 95 98 96 96 95 96 98 100 100 100 100 100 99 97 94 92 89 87 87 89 91 91 87 79 74 72 72 76 76 67 57 52 50 49 48 46 45 44 44 46 49 51 50 49 49 47 42 41 42 43 43 43 45 45 45 46 49 51 52
99 98 92 87 91 95 96 96 96 97 99 100 100 100 99 99 99 98 96 93 90 88 88 90 92 93 90 83 77 73 72 77 80 72 61 55 52 51 50 49 47 46 47 49 52 54 53 50 50 48 43 40 41 43 44 43 44 45 46 46 47 48 48
100 102 99 92 91 94 96 96 97 99 100 101 100 100 100 99 99 99 98 96 93 89 89 91 93 93 90 84 80 75 74 78 81 74 66 59 55 54 53 51 50 49 51 53 54 56 54 52 51 50 46 43 42 43 44 43 44 45 46 47 47 46 46
101 102 102 97 93 95 97 97 98 100 101 101 100 100 100 99 99 99 98 97 95 91 90 91 93 93 90 85 81 77 75 78 80 74 68 63 59 56 54 53 52 52 53 54 55 56 56 54 54 52 50 48 46 45 45 45 45 45 46 48 48 48 48
100 101 102 100 97 97 99 98 98 100 101 101 101 100 100 99 99 100 99 96 95 93 92 91 92 92 89 86 82 79 77 79 79 74 68 66 65 61 56 53 53 53 53 54 56 57 57 56 55 54 54 52 50 48 47 47 47 46 46 47 48 49 49
100 100 101 101 100 101 100 98 98 100 101 101 101 100 100 100 100 101 99 96 94 93 92 92 92 91 89 86 82 79 79 80 79 73 69 69 69 66 61 57 55 55 56 57 59 61 61 61 59 58 57 56 54 51 50 50 50 47 45 46 47 49 49
101 100 100 101 101 102 101 99 99 100 101 101 100 100 100 100 101 101 99 96 93 92 92 93 94 92 88 85 82 80 81 83 79 73 71 72 73 71 67 63 61 59 58 58 60 63 65 65 64 62 60 58 57 55 54 54 53 49 48 48 47 47 48
100 100 100 100 101 103 102 100 99 100 101 100 100 100 100 100 101 100 98 95 93 92 91 92 94 93 88 85 82 82 84 85 80 76 75 75 76 75 72 70 68 65 62 60 60 63 65 66 66 65 63 61 60 58 57 58 57 54 53 52 49 47 48
100 100 101 101 102 102 101 101 100 101 101 100 100 100 100 101 101 99 97 94 93 92 91 92 93 92 87 85 84 84 86 86 83 81 79 78 78 77 75 75 74 72 68 65 64 65 66 66 67 67 65 62 62 60 59 60 61 60 60 58 54 50 49
100 100 100 100 101 101 101 101 101 101 100 100 100 100 101 101 101 98 96 94 93 92 92 92 93 91 86 84 85 87 89 89 87 84 82 79 77 76 76 77 78 75 73 71 70 70 69 68 69 68 66 64 63 62 61 61 62 63 63 63 62 58 55
100 100 100 100 100 100 100 101 101 100 100 100 100 101 102 102 100 97 95 93 93 93 92 93 93 89 85 84 86 90 93 91 88 85 82 78 77 76 77 78 78 76 74 73 73 73 71 70 69 70 68 66 65 66 65 63 63 63 63 64 65 65 63
100 100 100 100 100 101 101 101 100 100 100 100 100 101 102 101 99 96 94 93 93 93 94 94 91 87 85 85 87 92 96 93 88 85 82 78 77 77 78 79 79 78 77 75 74 74 73 70 69 69 69 67 67 68 67 66 65 65 64 64 64 64 65
99 100 101 100 100 101 101 100 100 99 100 100 100 101 101 101 98 94 93 93 93 95 95 92 88 86 86 87 89 93 97 93 87 84 81 79 78 79 79 80 80 79 79 78 78 78 76 72 68 66 66 65 67 69 69 69 68 67 66 65 64 64 64
98 99 101 100 100 100 101 100 100 100 100 100 100 100 101 99 96 94 93 93 95 96 94 90 87 86 87 88 91 95 97 93 87 83 81 79 79 79 79 79 79 78 78 80 81 82 82 79 72 67 66 66 68 71 71 69 70 69 66 65 64 64 65
98 99 100 100 100 101 101 100 100 100 100 99 99 100 99 97 94 93 94 95 97 96 92 88 87 87 87 89 93 97 96 90 84 81 80 79 78 78 78 77 78 79 80 82 83 84 85 86 81 75 71 70 71 72 72 71 71 69 67 65 64 64 65
99 100 101 101 101 101 101 101 101 101 100 99 99 100 97 94 93 93 95 97 97 94 90 87 86 87 87 90 93 95 92 86 82 80 79 78 78 78 78 77 79 81 82 84 85 85 86 90 90 84 78 74 73 74 75 74 73 71 69 67 66 65 66
99 100 101 100 100 100 100 100 101 101 100 100 100 99 96 94 94 95 97 98 95 92 89 86 85 87 90 93 93 91 85 81 79 79 78 77 77 78 78 79 80 82 84 86 89 90 91 94 96 92 85 78 75 75 77 76 75 73 71 70 71 69 67
100 101 101 100 100 100 100 100 100 100 100 100 100 98 96 95 96 98 99 97 94 90 88 86 87 90 94 94 92 87 82 79 78 78 77 77 78 78 79 80 81 83 86 90 93 96 97 98 99 98 93 86 80 77 78 78 77 76 75 75 75 72 70
100 100 100 100 101 101 100 100 100 101 101 100 98 96 95 96 98 100 99 96 92 89 87 87 88 90 93 93 91 87 83 81 80 79 79 79 79 79 79 80 81 84 87 92 96 99 101 101 101 100 98 93 87 83 81 81 80 81 82 80 77 74 73
100 100 100 100 101 101 100 100 100 101 101 99 97 96 97 98 100 100 97 93 90 88 86 86 88 91 93 93 91 88 84 82 81 81 80 80 80 79 79 79 80 84 89 95 99 101 102 101 101 101 101 99 95 91 88 86 86 86 84 82 78 77 78
101 100 100 100 101 101 100 99 100 100 100 99 98 98 99 100 100 98 95 91 89 87 85 86 88 91 92 91 89 87 83 81 81 81 80 80 80 79 78 78 80 85 91 97 100 101 101 101 101 102 103 102 100 96 93 90 88 86 83 81 81 82 82
101 100 100 100 101 101 100 100 100 100 100 100 100 100 100 100 99 96 91 89 88 87 86 86 88 91 92 91 88 85 82 80 80 80 80 80 80 79 79 79 82 87 93 97 100 101 101 101 101 102 103 102 101 97 93 90 88 86 83 81 83 85 86
100 100 100 100 100 100 100 101 101 101 100 100 100 100 99 99 98 95 91 89 88 87 86 87 88 89 90 89 85 83 81 80 80 80 80 79 79 80 81 83 85 88 93 97 100 101 100 100 100 100 101 100 99 97 93 89 87 85 83 83 85 87 88
100 100 100 100 100 101 101 101 101 100 100 100 99 99 99 98 97 95 92 90 89 87 86 87 87 87 88 87 83 81 80 80 80 80 80 79 79 80 83 85 86 88 92 96 99 100 100 99 99 100 99 99 98 97 95 90 85 82 82 85 88 89 90
100 100 100 100 100 101 101 101 101 100 100 100 99 99 99 99 97 95 92 89 88 87 87 87 86 86 87 87 84 80 79 80 80 80 80 80 79 80 82 83 85 87 91 96 98 99 99 99 98 98 97 97 96 97 96 93 87 82 81 85 89 91 92